Tracking 19490 objects as of 24-Jan-2019
HD Live streaming from Space Station
objects crossing your sky now

FENGYUN 1C DEB

Track FENGYUN 1C DEB now!
10-day predictions


NORAD ID: 30477
Int'l Code: 1999-025AGQ
Perigee: 861.7 km
Apogee: 1,533.9 km
Inclination: 99.4 °
Period: 109.2 minutes
Semi major axis: 7568 km
RCS: 0.0105 m2 (small)
Launch date: May 10, 1999
Source: People's Republic of China (PRC)
Launch site: Taiyaun Space Center, China (TSC)

Note: This is SATELLITE DEBRIS
aabbcc
Your satellite tracking list
Your tracking list is empty




NASA's NSSDC Master Catalog

Two Line Element Set (TLE):
1 30477U 99025AGQ 19023.14221705  .00000192  00000-0  34932-3 0  9999
2 30477  99.4192 325.2608 0444008 162.2761 328.3552 13.18448191575586
Source of the keplerian elements: AFSPC